Date String (YYYY-MM-DD hh:mm:ss) UTC,Instrument flags,Ambient pressure (hPa),Sample flow (lpm),Bypass flow (lpm),Sample temperature (°C),Ambient temperature (°C),ASC tube jacket temperature (°C),LED temperature (°C),Box temperature (°C),Sample RH (%),Span deviation,Mass concentration (μg/m³),Mass concentration (μg/m³),Mass concentration (μg/m³)
DateTimeUTC,F1_M11,P_M11,Q1_M11,Q2_M11,T1_M11,T2_M11,T3_M11,T4_M11,T5_M11,U1_M11,ZSPAN_M11,X0_M11,X2_M11,X1_M11
2022-08-14 13:00:00,,0829.8,5.01,0.00,29.7,28.7,00.0,38.5,31.6,27.6,0000.0,0006.98,0004.16,0003.79
2022-08-14 13:01:00,,0829.9,5.00,0.00,29.7,28.8,00.0,38.5,31.7,27.7,0000.0,0006.98,0004.13,0003.78
2022-08-14 13:02:00,,0829.9,5.01,0.00,29.7,28.8,00.0,38.5,31.7,27.6,0000.0,0007.05,0004.13,0003.78
2022-08-14 13:03:00,,0829.8,5.00,0.00,29.8,28.8,00.0,38.5,31.7,27.4,0000.0,0007.03,0004.12,0003.77
2022-08-14 13:04:00,,0829.9,5.00,0.00,29.8,28.9,00.0,38.5,31.7,27.3,0000.0,0007.04,0004.11,0003.76
2022-08-14 13:05:00,,0829.9,5.00,0.00,29.8,28.9,00.0,38.5,31.7,27.4,0000.0,0007.00,0004.10,0003.75
2022-08-14 13:06:00,,0829.9,5.01,0.00,29.8,28.9,00.0,38.6,31.7,27.3,0000.0,0007.10,0004.13,0003.74
2022-08-14 13:07:00,,0829.9,4.99,0.00,29.8,28.9,00.0,38.6,31.8,27.5,0000.0,0007.07,0004.13,0003.74
2022-08-14 13:08:00,,0829.8,5.00,0.00,29.8,29.0,00.0,38.6,31.8,27.8,0000.0,0007.11,0004.13,0003.74
2022-08-14 13:09:00,,0829.8,5.00,0.00,29.9,29.0,00.0,38.6,31.8,27.7,0000.0,0007.01,0004.10,0003.74
2022-08-14 13:10:00,,0830.0,5.00,0.00,29.9,29.0,00.0,38.6,31.8,28.1,0000.0,0006.85,0004.06,0003.73
2022-08-14 13:11:00,,0829.8,5.00,0.00,29.9,29.0,00.0,38.6,31.8,27.9,0000.0,0006.54,0004.07,0003.74
2022-08-14 13:12:00,,0829.9,5.00,0.00,29.9,28.9,00.0,38.6,31.8,28.0,0000.0,0006.62,0004.10,0003.75
2022-08-14 13:13:00,,0829.8,5.01,0.00,29.9,28.2,00.0,38.6,31.5,28.2,0000.0,0007.14,0004.14,0003.76
2022-08-14 13:14:00,,0829.9,4.99,0.00,29.8,27.8,00.0,38.6,31.5,28.8,0000.0,0007.50,0004.14,0003.76
2022-08-14 13:15:00,,0829.8,5.01,0.00,29.7,27.7,00.0,38.6,31.4,28.5,0000.0,0007.58,0004.15,0003.76
2022-08-14 13:16:00,,0829.9,4.99,0.00,29.7,27.7,00.0,38.5,31.4,27.8,0000.0,0007.67,0004.18,0003.77
2022-08-14 13:17:00,,0829.9,5.01,0.00,29.6,27.8,00.0,38.5,31.4,28.4,0000.0,0007.79,0004.21,0003.78
2022-08-14 13:18:00,,0829.9,5.00,0.00,29.6,27.9,00.0,38.5,31.4,29.1,0000.0,0007.87,0004.23,0003.79
2022-08-14 13:19:00,,0829.9,4.99,0.00,29.6,28.1,00.0,38.5,31.4,28.4,0000.0,0008.15,0004.24,0003.80
2022-08-14 13:20:00,,0829.9,4.99,0.00,29.6,28.2,00.0,38.5,31.4,28.3,0000.0,0008.45,0004.25,0003.80
2022-08-14 13:21:00,,0829.9,5.01,0.00,29.6,28.3,00.0,38.5,31.5,28.3,0000.0,0008.56,0004.26,0003.81
2022-08-14 13:22:00,,0829.9,5.00,0.00,29.6,28.4,00.0,38.5,31.5,27.4,0000.0,0008.51,0004.26,0003.81
2022-08-14 13:23:00,,0829.9,5.00,0.00,29.6,28.4,00.0,38.5,31.5,28.3,0000.0,0008.41,0004.23,0003.81
2022-08-14 13:24:00,,0829.9,5.00,0.00,29.7,28.5,00.0,38.5,31.5,28.5,0000.0,0008.16,0004.23,0003.81
2022-08-14 13:25:00,,0829.8,5.00,0.00,29.7,28.6,00.0,38.5,31.6,28.0,0000.0,0007.87,0004.24,0003.82
2022-08-14 13:26:00,,0829.8,5.00,0.00,29.7,28.6,00.0,38.5,31.6,27.6,0000.0,0007.82,0004.25,0003.82
2022-08-14 13:27:00,,0829.8,5.01,0.00,29.7,28.7,00.0,38.5,31.6,28.5,0000.0,0007.86,0004.26,0003.83
2022-08-14 13:28:00,,0829.8,5.00,0.00,29.7,28.7,00.0,38.5,31.6,29.1,0000.0,0007.80,0004.22,0003.83
2022-08-14 13:29:00,,0829.9,4.99,0.00,29.8,28.8,00.0,38.5,31.7,28.3,0000.0,0007.82,0004.24,0003.83
2022-08-14 13:30:00,,0829.8,5.00,0.00,29.8,28.8,00.0,38.5,31.7,29.7,0000.0,0007.54,0004.24,0003.84
2022-08-14 13:31:00,,0829.9,5.01,0.00,29.8,28.9,00.0,38.5,31.7,30.2,0000.0,0007.19,0004.24,0003.84
2022-08-14 13:32:00,,0829.9,5.00,0.00,29.8,28.9,00.0,38.6,31.7,30.5,0000.0,0006.99,0004.22,0003.84
2022-08-14 13:33:00,,0829.9,5.00,0.00,29.8,28.9,00.0,38.6,31.7,29.2,0000.0,0006.94,0004.22,0003.83
2022-08-14 13:34:00,,0829.8,5.00,0.00,29.9,29.0,00.0,38.6,31.8,29.3,0000.0,0007.14,0004.26,0003.83
2022-08-14 13:35:00,,0829.9,5.01,0.00,29.9,29.0,00.0,38.6,31.8,29.2,0000.0,0007.09,0004.25,0003.83
2022-08-14 13:36:00,,0829.8,5.01,0.00,29.9,29.0,00.0,38.6,31.8,30.6,0000.0,0007.59,0004.23,0003.83
2022-08-14 13:37:00,,0829.9,5.00,0.00,29.9,29.0,00.0,38.6,31.8,30.5,0000.0,0007.91,0004.26,0003.83
2022-08-14 13:38:00,,0829.9,5.01,0.00,29.9,28.3,00.0,38.6,31.6,29.7,0000.0,0008.02,0004.29,0003.83
2022-08-14 13:39:00,,0829.9,5.00,0.00,29.8,27.6,00.0,38.5,31.4,28.6,0000.0,0007.95,0004.28,0003.84
2022-08-14 13:40:00,,0829.9,4.99,0.00,29.7,27.4,00.0,38.5,31.4,28.5,0000.0,0007.85,0004.25,0003.84
2022-08-14 13:41:00,,0829.9,5.01,0.00,29.7,27.4,00.0,38.5,31.3,28.5,0000.0,0007.84,0004.25,0003.84
2022-08-14 13:42:00,,0829.8,4.99,0.00,29.6,27.5,00.0,38.5,31.3,28.2,0000.0,0008.30,0004.28,0003.85
2022-08-14 13:43:00,,0829.9,5.01,0.00,29.6,27.6,00.0,38.5,31.3,28.7,0000.0,0008.39,0004.30,0003.87
2022-08-14 13:44:00,,0829.9,4.99,0.00,29.6,27.8,00.0,38.4,31.3,29.9,0000.0,0008.42,0004.30,0003.88
2022-08-14 13:45:00,,0829.8,5.01,0.00,29.6,27.9,00.0,38.4,31.4,30.1,0000.0,0008.32,0004.28,0003.89
2022-08-14 13:46:00,,0829.9,5.00,0.00,29.6,28.1,00.0,38.4,31.4,31.2,0000.0,0008.29,0004.27,0003.89
2022-08-14 13:47:00,,0829.8,5.00,0.00,29.6,28.2,00.0,38.4,31.4,30.3,0000.0,0007.82,0004.26,0003.90
2022-08-14 13:48:00,,0829.9,5.00,0.00,29.6,28.3,00.0,38.4,31.4,29.5,0000.0,0007.52,0004.24,0003.90
2022-08-14 13:49:00,,0829.9,5.01,0.00,29.6,28.4,00.0,38.4,31.5,29.5,0000.0,0007.43,0004.24,0003.91
2022-08-14 13:50:00,,0830.0,5.00,0.00,29.6,28.5,00.0,38.4,31.5,30.3,0000.0,0007.56,0004.30,0003.92
2022-08-14 13:51:00,,0830.0,5.01,0.00,29.6,28.6,00.0,38.4,31.5,30.3,0000.0,0007.67,0004.35,0003.93
2022-08-14 13:52:00,,0830.0,5.00,0.00,29.6,28.6,00.0,38.4,31.5,30.0,0000.0,0007.67,0004.35,0003.93
2022-08-14 13:53:00,,0830.0,5.00,0.00,29.7,28.7,00.0,38.5,31.6,29.0,0000.0,0007.28,0004.35,0003.93
2022-08-14 13:54:00,,0830.1,4.99,0.00,29.7,28.8,00.0,38.5,31.6,28.8,0000.0,0007.22,0004.35,0003.93
2022-08-14 13:55:00,,0830.0,5.01,0.00,29.7,28.8,00.0,38.5,31.7,28.8,0000.0,0007.33,0004.37,0003.93
2022-08-14 13:56:00,,0830.0,4.99,0.00,29.8,28.9,00.0,38.5,31.7,29.3,0000.0,0007.54,0004.40,0003.93
2022-08-14 13:57:00,,0830.0,5.01,0.00,29.8,28.9,00.0,38.5,31.7,29.5,0000.0,0007.55,0004.41,0003.94
2022-08-14 13:58:00,,0830.0,5.01,0.00,29.8,29.0,00.0,38.5,31.7,29.4,0000.0,0007.57,0004.43,0003.95
2022-08-14 13:59:00,,0830.0,5.01,0.00,29.8,29.0,00.0,38.6,31.7,29.3,0000.0,0007.60,0004.44,0003.96
